GFSSGP_250_spd_021.txt.gz
Wind_Speed
20 18 18 17 16 15 15 15 13 11 11 12 11 8 9 9 11 9 12 12 13 12 14 16 19 29 39 44 48 55 56 61 61 63 63 63 64 63 63 62 61 62 60 57 55 54 54 54 54
19 18 17 17 18 18 15 16 15 13 10 12 14 12 9 12 12 8 11 13 11 13 13 13 17 20 26 37 44 47 54 58 61 63 62 61 64 64 66 65 64 64 64 62 61 58 58 57 54
16 14 14 15 16 18 16 15 13 10 11 9 13 15 12 11 12 14 12 14 12 14 14 14 15 18 20 24 32 40 45 51 58 60 62 62 61 63 66 66 65 65 65 64 63 63 61 61 61
17 13 13 14 14 13 14 13 12 9 8 8 7 10 14 14 13 13 15 14 14 14 14 14 16 18 19 20 25 33 37 43 48 55 61 63 65 65 64 65 67 68 68 66 66 66 66 64 61
17 13 10 11 11 11 12 10 12 11 8 6 5 4 8 12 14 14 13 15 14 16 14 15 16 16 18 19 22 25 29 37 43 46 53 59 65 66 67 68 68 67 69 70 68 67 68 68 65
17 13 10 9 11 10 10 8 7 7 8 8 6 4 5 6 9 11 13 15 15 15 17 17 17 17 19 18 19 21 24 29 34 40 46 50 56 62 67 69 70 71 71 71 71 70 71 72 70
17 13 7 11 10 13 8 9 6 3 5 13 6 7 4 8 7 7 7 11 16 17 17 18 21 21 20 22 21 20 22 24 29 33 37 41 46 51 55 61 68 72 74 75 75 74 73 75 73
18 16 9 12 11 16 14 13 9 6 5 14 15 11 9 8 8 9 8 8 10 14 20 20 20 21 26 24 23 22 23 24 24 26 32 35 38 43 46 50 54 58 61 67 73 74 75 76 76
22 16 13 11 12 15 17 17 19 7 6 16 18 15 14 11 9 8 10 11 12 14 15 23 24 24 24 24 28 28 26 27 25 25 24 26 31 35 38 43 47 49 49 53 57 58 63 66 69
24 20 19 13 15 14 16 18 21 21 3 12 23 19 13 15 12 10 13 14 17 19 18 17 20 26 28 28 28 29 30 30 28 28 29 29 27 29 33 35 36 39 43 47 49 50 51 52 54
24 24 24 19 20 17 17 19 21 28 13 14 24 25 25 19 6 9 12 17 19 23 21 23 21 21 23 28 30 30 30 30 30 31 31 32 32 31 30 30 31 34 36 38 39 42 45 46 49
26 26 28 25 23 23 25 22 25 26 33 25 22 30 26 22 20 17 18 18 21 23 27 28 27 26 25 25 25 25 26 31 34 34 33 33 34 35 34 34 34 34 34 34 34 36 37 39 41
31 32 32 32 29 28 30 26 29 30 33 36 31 30 29 28 20 23 26 26 28 28 29 31 32 31 29 31 31 29 28 29 30 32 36 39 36 35 36 36 37 38 37 38 37 38 38 38 37
32 34 36 35 31 32 31 32 28 33 38 38 39 38 37 31 31 32 32 35 38 34 30 31 33 33 36 35 33 34 33 32 33 34 34 36 41 40 39 37 37 38 38 40 40 40 41 41 41
36 35 38 37 32 33 30 34 31 33 38 43 40 40 42 38 38 40 41 40 40 42 41 35 36 36 37 38 37 36 36 36 37 36 35 37 37 42 44 44 43 42 42 43 42 42 44 44 43
38 37 40 40 35 36 35 36 41 37 33 44 45 41 39 44 44 46 49 47 44 44 45 45 41 40 41 42 41 41 41 39 38 38 38 38 38 39 40 43 45 47 49 50 49 47 46 44 45
39 39 42 43 44 42 41 39 44 50 44 47 45 43 47 48 48 47 44 46 47 46 43 44 45 48 47 46 46 46 46 43 42 42 43 42 42 41 43 43 42 43 44 46 49 52 52 51 48
39 41 43 44 47 47 47 49 47 48 54 59 52 54 54 51 51 49 48 49 51 46 45 46 45 44 46 49 50 51 50 50 47 46 47 49 47 47 45 46 47 46 47 49 48 46 47 52 56
47 45 44 47 46 48 50 49 50 53 55 58 55 59 64 64 60 57 55 57 58 55 51 49 49 50 53 52 50 49 52 53 52 52 52 50 52 52 53 51 49 50 50 48 48 50 50 51 52
47 47 48 45 46 43 42 44 47 52 52 56 54 56 59 64 66 68 65 63 63 63 62 61 61 59 58 57 58 59 55 54 55 56 55 49 51 53 53 54 54 51 51 50 50 49 51 52 54
42 42 40 46 48 48 40 37 44 52 48 49 56 61 65 63 62 68 69 72 71 70 71 72 71 70 69 67 64 62 64 63 60 59 59 55 55 56 59 61 56 58 57 56 57 55 53 54 53
56 58 59 52 50 50 54 45 46 56 57 59 58 69 67 65 68 72 72 77 76 77 79 80 80 79 79 76 75 73 70 68 69 68 65 65 66 67 63 63 65 66 66 65 63 61 59 54 55
54 57 58 61 61 56 57 59 56 66 71 71 71 75 79 81 86 80 84 76 75 80 81 79 80 83 83 84 82 83 81 77 75 77 75 73 75 75 73 73 73 70 72 73 71 71 70 67 66
71 66 64 61 62 62 70 74 66 72 78 83 87 89 93 96 96 88 85 82 87 84 84 87 86 87 89 87 86 86 83 84 83 81 83 84 87 85 85 85 84 83 81 79 82 78 75 76 74
69 70 73 73 73 74 78 76 77 83 90 94 94 94 99 108 104 98 96 92 90 94 94 91 94 95 96 98 95 94 94 94 94 94 96 98 97 98 93 94 92 91 88 90 86 89 89 87 86
80 83 83 85 84 82 87 91 94 98 101 104 107 107 108 102 105 105 99 102 98 102 101 101 99 103 100 102 106 106 107 101 101 102 101 102 103 105 103 103 103 100 99 99 97 96 96 96 96
85 92 97 96 98 100 91 94 97 101 105 108 107 111 111 103 107 107 100 104 107 109 113 110 107 109 109 112 113 113 111 115 114 111 109 109 109 108 104 108 109 111 112 111 109 106 106 104 103
101 102 102 103 105 106 105 105 103 106 112 111 110 111 110 108 111 106 103 109 113 117 120 122 120 116 117 120 119 123 124 124 120 120 122 122 119 116 114 113 113 115 119 120 119 118 116 114 114
110 109 111 113 112 114 120 108 103 108 111 113 113 114 114 113 111 111 113 111 113 117 123 126 132 129 128 127 129 132 132 130 129 131 129 128 129 127 127 122 124 123 124 124 128 128 125 123 124
116 116 117 119 119 124 126 114 112 115 115 116 119 119 114 110 109 109 110 113 118 119 119 122 126 128 129 131 134 137 136 139 136 137 140 139 141 139 138 138 134 131 135 134 132 131 131 131 134

GFSSGP_250_spd_024.txt.gz
Wind_Speed
14 14 15 17 16 16 15 14 12 7 7 12 15 14 13 13 14 13 12 12 14 18 22 30 37 43 51 55 56 60 64 63 66 65 68 68 68 66 66 63 63 62 60 58 57 58 60 59 58
15 14 14 16 15 16 14 13 11 9 6 7 16 15 15 15 15 16 14 12 13 14 20 26 29 35 42 49 56 59 59 63 65 65 69 69 69 68 68 67 67 67 66 64 62 61 60 60 61
12 12 14 13 13 15 14 12 10 9 4 5 9 17 16 15 17 17 14 16 17 16 16 17 23 28 33 41 48 53 59 63 64 66 67 68 71 71 70 70 70 70 70 68 67 65 64 62 61
12 11 12 10 8 11 12 12 8 6 4 5 5 8 17 17 17 17 17 16 18 19 20 20 19 21 27 32 37 44 51 55 61 65 64 67 69 70 72 72 72 72 72 71 70 70 69 67 66
15 11 12 13 6 7 8 7 9 5 5 4 3 4 6 13 15 17 18 18 18 20 22 22 22 22 23 27 30 33 41 48 53 56 61 66 68 70 71 72 72 72 73 74 75 73 72 71 71
15 11 9 14 13 2 9 8 6 8 9 10 4 3 5 5 9 12 16 19 22 22 22 22 24 24 24 25 27 30 33 36 42 50 55 57 62 68 71 73 73 72 70 69 72 74 73 72 74
17 13 8 13 13 12 7 9 9 8 11 15 11 5 6 7 8 8 10 13 17 23 25 25 24 26 25 26 27 27 29 32 36 39 43 49 54 56 59 66 70 73 74 73 73 73 73 73 74
18 13 11 12 13 15 14 12 11 7 10 15 16 10 7 8 8 11 10 12 15 16 23 27 29 28 28 26 29 29 30 30 31 34 37 41 45 50 53 57 60 62 68 72 74 73 74 75 75
18 14 14 14 14 14 16 17 17 9 7 16 16 14 10 9 9 11 14 17 18 19 19 22 28 32 32 32 32 31 32 32 32 33 34 38 41 44 46 50 53 56 59 62 65 70 73 74 75
21 16 16 16 17 16 17 19 21 16 9 17 17 21 18 13 10 12 18 21 22 23 23 22 21 26 33 34 34 34 35 33 31 32 33 33 34 37 41 43 47 50 53 55 56 56 58 61 64
23 20 20 18 19 19 22 20 23 27 17 18 18 21 22 20 18 18 17 20 23 25 27 25 25 25 26 30 36 36 36 36 35 34 34 36 37 36 36 37 39 44 48 50 52 54 54 54 55
26 23 25 22 21 24 27 26 29 30 34 26 24 26 23 25 28 29 27 24 24 25 27 30 30 28 26 29 31 33 34 37 40 40 39 39 39 39 39 39 40 40 42 45 46 47 48 49 53
30 29 29 30 27 29 30 30 31 33 35 37 33 26 28 31 33 33 31 33 34 31 32 31 33 36 37 32 31 33 34 35 35 36 38 40 42 44 44 43 44 45 44 42 42 43 44 45 46
31 31 33 31 30 32 32 30 30 33 37 38 33 33 33 34 37 38 38 35 37 40 39 39 41 39 39 42 39 35 35 35 37 39 39 40 41 41 42 46 45 45 46 47 47 46 46 46 46
32 34 36 35 35 35 34 37 33 34 37 41 36 32 35 37 36 37 39 40 40 40 42 44 44 45 44 41 43 45 44 39 38 39 40 41 43 45 45 45 47 51 49 48 48 49 49 50 51
31 31 36 37 37 38 38 40 43 43 41 43 40 39 40 42 43 42 40 42 46 46 46 44 44 44 44 46 45 45 46 48 47 44 42 42 43 44 46 46 47 48 54 54 54 52 52 52 52
34 33 34 35 35 34 34 37 46 52 51 48 46 48 48 48 47 47 48 47 47 51 50 50 47 46 48 48 49 50 49 50 52 51 50 48 47 47 47 48 48 50 52 54 58 59 60 59 57
41 40 39 40 42 38 38 38 39 43 49 48 50 52 55 54 54 54 53 54 54 51 51 53 54 53 53 51 53 53 52 53 54 54 55 55 54 53 54 52 52 51 54 56 56 55 55 56 57
44 44 44 46 46 43 42 35 39 42 41 42 47 49 49 50 52 52 51 51 52 55 58 56 59 61 61 60 59 58 57 58 59 60 61 60 61 60 59 58 57 56 56 58 59 60 59 59 57
46 47 49 49 50 43 43 41 42 44 46 46 49 53 53 53 53 53 56 57 55 58 58 60 61 65 68 69 67 66 64 63 65 64 64 64 65 64 64 65 64 62 63 62 62 61 61 62 62
42 43 44 49 49 47 44 48 50 51 49 51 52 51 53 56 56 60 56 57 62 59 61 64 62 68 71 74 77 77 75 73 71 72 73 72 70 68 68 69 70 68 68 67 66 65 62 60 59
47 53 49 50 52 54 57 54 52 57 56 58 58 60 62 64 66 67 67 69 73 76 78 75 75 76 77 80 81 83 87 86 84 83 81 80 80 78 72 72 74 73 71 73 73 72 71 71 67
53 51 52 52 56 55 56 59 55 63 59 61 64 66 69 71 72 76 76 77 77 79 81 82 82 85 87 82 85 86 87 90 93 94 93 91 90 88 85 81 79 81 80 79 80 80 81 80 79
59 63 65 62 62 58 60 62 57 62 67 70 71 73 76 78 78 79 83 84 82 82 86 88 92 90 94 91 92 96 96 94 95 95 95 98 98 98 96 94 90 90 91 87 86 83 86 86 86
61 61 67 69 71 66 66 64 65 70 73 74 79 84 82 81 84 84 84 88 90 90 93 94 100 98 94 102 98 97 103 105 102 102 104 102 100 100 98 97 99 99 98 99 97 96 95 93 91
69 72 75 75 71 70 73 67 68 74 77 83 85 84 87 89 90 91 94 95 94 95 99 101 104 107 103 100 111 110 109 109 112 112 111 112 113 112 110 106 104 103 106 105 106 105 104 104 102
78 82 82 86 84 78 73 76 79 83 86 93 96 97 99 98 98 98 99 98 98 101 103 103 107 111 113 111 114 118 112 117 118 120 120 120 121 119 116 117 118 115 112 111 114 116 115 114 113
89 90 91 96 98 94 87 91 98 102 108 112 111 111 108 105 106 105 103 101 102 104 105 107 109 111 114 116 117 117 119 119 126 126 129 131 128 129 128 124 123 124 126 125 121 121 123 124 124
93 98 98 104 104 111 109 104 110 115 120 120 119 118 115 111 111 108 106 107 109 111 113 116 120 121 116 113 114 117 116 118 123 130 134 135 137 137 138 138 135 135 135 133 130 129 127 128 128
104 103 105 109 113 117 122 114 120 126 125 123 123 123 120 120 118 115 115 115 118 122 125 126 124 120 117 116 115 115 116 116 118 122 128 132 135 141 143 143 145 145 144 145 144 139 139 137 134

GFSSGP_250_spd_030.txt.gz
Wind_Speed
15 13 14 15 16 14 13 12 9 7 9 10 11 14 14 14 8 5 6 11 15 18 20 26 32 37 41 47 49 51 57 61 63 66 64 61 63 61 64 63 62 60 58 57 56 55 55 56 58
16 15 15 14 15 14 15 12 7 6 6 8 9 11 14 15 14 11 7 8 11 16 20 22 27 34 40 44 47 50 53 60 63 64 65 63 64 65 65 66 66 65 65 63 62 61 60 61 61
16 16 14 14 12 12 15 15 11 8 6 5 7 8 12 15 15 16 14 12 11 12 15 22 24 27 34 40 46 48 50 54 60 63 67 67 66 65 65 64 64 67 67 68 67 66 65 64 63
14 14 14 14 12 12 11 13 13 11 8 7 4 5 7 14 19 18 17 17 17 16 15 17 20 26 29 33 39 46 52 52 57 60 65 67 70 69 69 70 70 69 70 70 71 71 70 70 68
15 12 13 13 13 13 11 8 12 12 10 7 6 7 7 8 12 18 20 21 22 22 21 20 17 22 25 28 33 38 46 51 56 58 62 66 66 70 72 72 73 72 72 72 75 75 75 74 73
17 15 13 14 13 11 12 9 10 12 14 10 8 8 7 8 8 11 15 20 22 23 24 24 24 22 20 22 27 31 37 42 49 56 60 63 66 68 70 71 71 75 74 74 75 78 77 76 78
17 16 15 15 15 13 11 10 8 10 12 13 11 11 11 11 13 14 14 15 17 20 23 25 27 28 29 26 24 25 30 34 41 46 53 59 64 67 71 73 73 75 79 79 79 78 78 79 79
16 16 17 15 16 17 15 11 10 8 14 16 16 12 11 13 15 15 16 18 19 21 20 19 19 24 29 32 32 30 28 29 31 36 42 45 50 57 64 69 71 73 77 79 79 79 80 80 80
15 15 17 16 16 16 16 16 12 9 13 17 20 20 16 11 13 15 18 20 21 20 21 22 22 21 20 21 27 34 34 33 32 34 36 36 39 42 46 52 57 64 68 70 72 76 79 81 82
16 14 15 16 17 17 18 18 16 13 15 18 21 23 26 23 22 15 16 20 20 20 21 21 22 23 22 20 22 22 26 34 38 37 39 41 41 41 41 42 43 46 53 58 63 67 70 73 73
17 16 15 16 17 19 20 22 20 19 17 21 22 26 29 27 27 27 28 26 27 27 26 27 27 27 26 25 23 23 23 25 28 34 41 44 44 45 45 47 46 45 45 46 48 51 56 60 64
19 19 18 19 19 22 23 23 24 25 25 22 25 26 29 32 33 34 34 31 30 30 33 34 33 34 34 32 31 31 31 29 30 31 33 37 40 44 48 48 50 51 50 48 48 48 48 49 49
24 21 22 22 24 27 27 26 26 25 26 27 26 28 30 32 30 30 31 32 33 34 35 35 37 37 36 38 39 39 38 39 37 35 35 36 39 42 43 43 45 51 53 52 52 53 54 54 53
28 28 27 27 27 30 31 31 29 29 27 29 31 30 31 33 32 32 32 33 35 36 36 36 37 39 41 40 40 42 44 43 43 43 42 40 40 41 42 44 45 46 47 48 52 57 57 57 57
33 34 34 33 31 30 31 33 32 32 30 29 30 31 33 33 35 36 38 40 39 40 42 42 43 44 45 45 45 45 47 49 49 47 44 45 44 44 45 46 46 46 47 49 51 52 54 54 56
33 36 38 35 34 34 34 40 38 37 36 35 36 35 35 36 37 38 40 43 44 44 44 45 48 50 51 51 51 51 53 53 53 54 52 50 49 49 49 49 50 50 50 49 51 53 53 54 56
37 38 40 40 40 37 38 43 43 40 39 41 42 42 42 43 42 43 44 45 44 43 43 46 48 49 51 52 52 53 54 53 53 53 55 57 58 57 57 56 56 55 54 53 54 56 57 56 55
37 38 39 44 43 40 41 42 49 45 46 47 48 47 47 46 44 43 45 47 49 51 52 52 52 52 51 52 52 53 55 57 57 57 57 58 61 63 64 64 65 65 63 62 60 58 57 57 61
39 39 41 46 45 41 43 42 45 47 47 49 49 49 48 49 49 49 51 53 56 58 57 56 58 59 59 59 59 59 60 61 62 63 61 61 64 70 72 70 70 71 72 72 71 68 65 62 62
44 42 45 45 46 44 43 41 44 47 49 47 49 50 52 54 56 56 58 59 57 60 66 67 67 66 67 67 65 65 68 68 68 69 70 68 69 69 70 74 79 82 80 78 79 78 76 74 71
41 45 46 43 45 41 41 40 46 49 51 53 57 59 61 63 63 65 69 68 68 71 71 70 75 74 74 74 76 77 77 78 78 78 77 76 78 80 80 81 81 82 81 82 83 84 84 83 82
42 47 43 44 44 42 42 43 49 55 57 56 58 60 62 62 65 70 72 73 77 73 79 78 78 81 84 83 82 83 87 88 87 88 89 90 88 89 90 89 89 89 90 91 91 89 88 91 92
42 46 49 49 47 47 50 51 44 52 58 62 66 66 63 60 60 64 62 61 67 73 74 76 81 83 84 91 93 93 95 96 100 98 100 100 102 102 101 101 99 99 100 99 98 97 97 96 95
50 49 52 51 50 48 58 58 53 53 60 65 70 71 71 72 70 69 68 66 70 66 71 77 76 82 84 87 88 90 94 95 100 101 104 105 109 110 109 114 113 111 110 109 110 108 107 105 105
55 56 56 56 59 62 61 59 58 64 67 72 73 78 79 72 68 71 71 71 70 74 74 76 84 87 94 95 101 101 98 100 94 102 108 107 107 111 114 114 113 117 120 118 117 119 118 117 114
60 61 62 60 58 61 69 68 70 77 78 78 82 80 78 79 81 80 78 82 85 82 81 80 81 83 91 93 94 93 96 101 104 104 105 111 118 117 114 113 116 122 119 121 124 125 126 124 125
66 66 70 71 70 71 65 63 72 76 78 78 76 77 78 77 83 83 85 88 96 93 90 89 95 95 97 98 99 98 101 102 106 106 109 114 115 116 119 120 124 125 127 130 130 134 132 133 133
70 73 76 81 82 77 69 66 68 78 86 84 87 88 85 87 86 91 97 102 105 103 109 112 111 108 108 108 105 106 107 108 106 107 111 115 118 120 124 127 129 129 128 131 133 135 137 138 139
80 81 85 87 85 89 84 76 80 87 90 91 91 88 91 91 95 100 105 110 114 118 123 125 128 123 121 114 110 111 109 112 111 109 109 110 112 114 118 121 124 128 131 138 140 138 139 140 141
82 84 90 89 87 81 89 73 86 96 98 90 92 95 93 101 100 105 112 116 125 131 135 139 133 131 123 115 113 115 113 110 107 105 103 103 103 104 105 106 109 112 116 120 124 131 137 140 143

GFSSGP_250_spd_033.txt.gz
Wind_Speed
12 11 12 12 13 10 10 9 7 9 8 7 7 9 12 11 7 3 7 12 14 15 16 20 24 27 30 34 40 46 50 53 63 63 63 62 60 62 60 59 61 61 59 58 58 58 56 54 55
14 11 12 10 12 9 9 9 6 7 7 6 7 9 10 13 11 7 6 9 11 13 15 17 19 24 28 31 37 43 48 50 53 62 64 65 63 62 60 58 63 62 60 59 59 60 58 58 57
14 11 10 9 10 11 10 9 7 7 6 5 5 7 9 12 15 14 11 8 12 12 14 16 17 19 22 29 33 40 45 49 50 53 60 66 69 68 65 63 64 65 65 64 64 63 62 61 61
14 11 9 9 8 8 10 10 10 8 7 5 4 3 6 10 15 18 16 14 12 9 9 10 15 17 20 21 26 32 39 46 49 52 54 56 63 66 69 68 66 66 66 69 70 70 68 67 65
16 15 13 9 8 7 7 8 9 11 8 6 6 6 6 6 8 13 17 18 17 17 15 12 11 14 18 20 23 25 30 36 42 48 51 53 57 61 64 66 66 65 67 66 70 74 73 73 72
14 14 13 13 11 9 7 6 5 9 13 11 9 10 11 9 10 10 10 13 15 18 20 21 21 19 16 20 19 22 25 29 34 39 45 49 53 55 59 64 67 67 69 70 70 73 74 75 75
17 15 12 12 10 9 9 5 5 9 12 11 11 10 11 13 10 12 13 13 12 10 10 14 16 19 23 24 22 23 25 24 25 32 38 42 48 52 58 61 63 67 70 71 72 74 75 77 79
15 15 15 12 12 11 9 8 6 9 17 15 11 10 11 13 13 10 9 12 15 15 14 11 13 14 16 18 22 24 27 26 27 27 28 31 39 44 49 55 61 65 68 71 72 74 74 76 76
12 14 15 15 13 11 12 9 8 9 16 21 21 18 15 14 13 14 14 14 15 18 20 20 17 14 14 16 20 21 22 23 27 31 33 33 33 36 41 46 47 51 56 61 66 70 74 78 79
11 11 12 13 14 13 14 14 11 11 13 17 24 23 21 20 18 17 17 19 19 19 20 22 23 23 22 19 18 18 20 22 23 24 29 35 38 38 38 39 41 43 46 49 53 57 60 64 68
12 11 12 12 14 14 14 15 14 16 16 20 22 28 29 25 24 23 24 25 27 27 26 24 24 26 28 28 27 25 24 24 25 25 26 28 30 34 40 44 46 45 44 45 46 47 49 50 53
15 14 14 15 15 14 13 16 18 20 18 20 21 22 24 27 28 26 25 24 25 25 27 27 28 28 29 30 30 31 32 32 33 34 34 34 35 36 35 36 42 47 50 50 51 50 50 51 50
18 17 17 18 21 19 18 19 20 20 21 24 24 24 26 26 28 30 31 29 27 27 28 30 31 31 31 30 31 32 34 36 36 36 37 38 39 41 43 44 42 42 45 47 51 54 56 56 55
21 20 20 22 24 23 24 20 20 19 23 25 29 30 30 29 30 30 32 35 36 37 37 38 38 39 41 41 40 39 39 40 40 40 41 43 43 43 43 45 47 48 46 45 47 48 51 53 54
23 23 23 24 24 27 28 25 26 26 28 28 30 30 32 33 33 33 35 36 39 40 41 44 46 47 46 47 48 51 50 49 49 49 48 49 49 50 49 46 46 46 50 51 50 50 51 51 52
27 29 28 27 26 26 28 29 29 29 29 32 34 35 35 36 37 37 38 40 42 44 44 45 47 48 49 52 54 55 55 57 58 58 59 59 57 55 55 55 53 51 51 50 50 52 55 57 56
31 35 34 33 28 26 29 33 32 32 34 36 36 37 39 41 40 40 39 42 45 47 48 50 51 52 52 54 56 57 59 61 62 63 65 65 65 65 64 61 61 61 59 58 58 57 55 56 56
35 35 35 35 30 29 32 36 39 37 37 38 38 38 39 42 43 44 44 45 48 52 53 55 57 60 60 59 60 62 63 66 66 66 68 69 72 72 71 72 70 70 69 69 67 66 64 63 61
34 33 33 36 32 30 32 35 40 37 35 36 39 42 44 44 46 49 50 52 54 55 58 59 62 65 66 65 67 71 70 71 72 74 75 76 79 78 79 79 80 79 77 77 75 76 74 72 70
37 33 37 36 34 31 34 35 37 38 39 39 40 44 46 50 53 54 56 58 60 58 59 59 58 63 66 65 69 72 75 79 80 81 82 83 85 85 85 84 84 85 86 86 87 85 87 82 79
40 38 40 37 37 35 34 33 39 39 39 40 45 48 50 52 50 51 55 59 58 60 62 61 61 60 62 66 71 73 77 77 82 87 89 91 92 93 95 95 94 93 93 93 93 91 91 93 91
39 45 41 39 37 34 35 33 41 43 44 48 53 55 54 55 55 55 54 56 62 68 72 71 65 63 63 65 64 67 67 69 76 86 92 95 97 99 102 103 104 104 103 102 101 102 101 100 99
46 49 48 43 43 38 40 41 38 46 50 53 56 59 60 61 61 63 64 64 68 73 71 73 72 69 69 65 66 70 72 74 74 78 78 86 94 94 96 104 110 111 113 113 112 113 113 112 109
54 55 54 51 52 46 49 47 41 48 55 59 62 62 66 68 69 74 76 77 80 75 76 71 67 67 68 69 72 75 78 80 82 89 84 83 89 98 102 104 108 107 108 114 119 120 121 121 123
61 60 58 58 57 53 54 53 50 52 54 57 64 69 70 70 75 74 75 80 83 81 75 72 73 69 71 75 80 84 90 96 95 95 95 92 90 92 99 103 106 112 119 113 113 119 122 126 128
63 62 64 65 64 59 58 56 55 62 63 68 64 67 69 68 72 75 80 89 84 84 84 77 73 74 74 80 83 90 96 100 105 106 99 96 97 99 100 104 109 110 108 110 120 124 119 124 129
63 64 69 65 59 59 60 59 61 65 70 72 72 69 71 73 79 85 92 97 93 96 91 79 75 79 83 90 95 101 108 112 117 112 105 104 103 101 102 106 111 113 118 125 130 128 132 133 134
69 71 70 70 69 67 65 67 70 72 76 74 72 74 77 79 82 90 89 91 91 90 87 81 84 89 96 100 106 113 113 116 119 112 105 109 108 105 104 105 108 113 116 119 121 124 130 131 138
76 76 78 79 78 76 74 73 75 76 72 76 80 85 86 86 87 91 95 93 95 87 88 86 93 101 105 108 114 119 126 128 125 115 113 114 109 103 99 100 101 102 104 105 107 108 110 115 120
79 79 82 84 83 84 82 75 76 83 84 86 87 87 89 96 98 96 92 91 90 90 87 95 97 104 111 119 124 129 132 136 125 123 120 108 103 100 96 95 94 95 96 97 98 98 100 103 108

GFSSGP_250_spd_036.txt.gz
Wind_Speed
12 11 11 11 8 6 6 7 5 5 5 5 8 7 7 11 11 12 13 15 15 15 16 18 22 26 29 32 36 42 48 52 58 58 62 61 60 58 57 56 56 57 57 56 55 54 55 53 53
12 11 10 11 9 5 5 6 4 4 5 5 6 8 9 7 8 7 7 11 12 13 14 14 15 19 22 26 30 35 41 47 51 55 62 61 61 59 56 56 56 60 59 60 61 61 60 60 58
11 10 10 9 9 5 5 4 3 4 4 4 5 5 8 9 8 7 6 6 8 8 9 11 12 13 16 20 24 29 34 41 46 50 60 63 63 62 62 60 60 59 62 62 63 64 62 62 62
9 9 8 9 10 7 6 5 4 5 6 6 6 7 6 6 9 8 8 8 5 8 8 10 11 13 14 15 19 25 29 35 40 43 47 53 61 65 64 64 65 65 65 65 63 65 66 65 66
11 8 7 7 9 8 6 8 6 5 7 7 6 8 8 7 6 5 6 7 10 11 10 9 10 14 14 17 19 21 24 30 36 42 45 48 50 54 61 67 70 68 67 68 69 68 67 69 69
13 11 10 6 8 7 7 6 7 7 7 8 8 9 10 9 8 6 3 3 5 5 8 11 13 14 16 18 18 20 23 25 28 34 40 46 51 52 54 58 62 66 70 74 74 75 72 73 73
14 13 11 9 8 6 7 7 8 8 7 7 8 9 11 9 6 5 5 2 0 4 6 7 9 12 14 16 19 22 23 24 26 29 33 37 42 47 51 55 58 59 62 65 70 73 74 75 72
12 13 12 9 8 7 6 7 9 11 10 9 7 7 9 11 9 7 6 8 8 6 5 6 7 8 10 12 15 17 19 24 27 30 29 31 35 40 44 49 53 57 60 62 64 66 68 71 73
11 12 11 9 9 6 5 7 9 10 13 15 14 12 10 10 11 12 14 14 15 16 16 14 13 12 12 11 12 15 18 20 23 26 29 33 33 34 36 38 41 47 52 58 62 65 68 70 72
12 10 9 9 9 6 5 6 8 10 12 15 17 18 17 14 13 15 17 19 21 21 20 20 19 17 18 18 19 19 21 22 23 25 27 29 32 35 38 41 41 40 41 44 47 52 58 63 68
13 10 9 8 9 8 6 8 9 10 12 15 18 19 19 17 16 16 17 19 21 24 25 26 26 26 26 25 26 25 26 27 28 29 29 30 30 32 34 36 39 42 44 46 48 49 51 53 55
15 13 12 11 10 8 7 9 12 13 15 15 16 17 20 22 22 21 19 20 22 24 25 25 25 26 27 27 29 31 32 32 33 34 36 38 38 37 37 37 40 42 44 46 48 50 52 53 55
17 16 14 14 12 9 10 11 15 14 15 17 18 19 19 19 21 23 24 24 25 24 24 28 31 31 32 32 33 35 36 35 35 37 39 41 42 44 47 46 45 44 46 48 50 52 53 54 56
19 17 17 18 13 10 13 14 16 16 19 21 23 22 22 22 23 24 24 26 29 31 32 29 28 30 34 37 38 39 40 42 43 44 45 46 48 50 50 49 50 52 52 54 55 53 55 55 55
20 19 20 20 15 15 18 18 19 19 21 24 25 24 26 27 26 27 29 31 31 34 36 37 37 39 39 41 41 41 44 45 46 48 49 50 50 52 54 58 60 60 58 58 59 61 61 59 59
22 23 22 20 18 18 21 20 20 22 23 25 27 26 28 28 27 27 28 31 34 36 37 40 42 44 47 48 49 49 50 53 54 53 54 56 56 58 59 59 61 65 66 67 66 64 65 66 65
25 27 26 22 19 18 22 21 22 23 25 27 30 31 31 29 29 31 33 35 37 40 41 42 45 46 48 52 55 56 56 59 60 62 62 63 65 66 67 69 70 71 71 71 73 74 71 69 69
30 29 30 24 18 19 21 23 25 24 28 29 30 31 33 33 33 34 38 40 43 45 45 48 51 54 56 58 61 65 66 66 66 67 69 70 72 72 72 74 76 78 80 81 81 81 82 80 78
32 33 34 30 23 21 21 25 28 29 30 30 31 32 34 36 37 38 40 45 49 49 47 47 50 54 56 58 62 64 67 71 73 76 76 74 74 78 80 81 84 85 86 88 88 89 89 89 88
37 34 39 33 26 24 26 27 32 32 33 32 34 36 37 38 39 42 46 48 47 47 47 47 50 55 56 62 64 69 68 70 73 73 75 76 77 80 81 78 82 88 91 93 92 93 94 95 95
36 37 41 32 31 28 28 28 36 36 37 37 39 40 40 41 43 46 49 51 53 53 57 59 58 62 65 69 71 73 77 81 78 80 78 77 79 73 76 75 76 79 87 95 98 100 99 98 101
37 40 39 37 33 32 34 27 40 41 41 43 45 45 47 48 49 51 53 56 58 60 63 64 68 71 71 71 69 68 70 76 74 78 84 86 84 85 82 83 78 80 86 92 96 104 108 108 107
36 41 42 42 38 34 37 42 37 46 49 50 52 52 50 54 56 57 58 61 63 63 64 66 70 73 76 78 79 79 79 82 89 84 90 80 80 84 87 90 95 93 92 92 96 91 97 110 113
43 46 49 46 44 35 48 51 36 54 57 58 58 57 57 57 59 61 58 58 62 66 68 71 73 76 82 86 89 92 97 93 91 87 82 82 89 88 86 93 95 97 96 94 99 100 102 101 107
52 51 50 50 52 50 53 53 46 54 60 63 62 63 63 63 63 63 68 68 64 67 66 69 76 81 87 90 91 89 92 95 91 86 86 83 90 92 94 98 99 101 103 104 104 103 104 101 108
59 58 56 55 53 54 54 51 54 60 63 64 64 65 66 66 68 69 71 70 65 67 71 77 82 86 89 93 92 95 97 98 98 87 91 92 92 100 102 109 106 105 103 102 109 107 110 116 116
59 56 62 59 56 56 55 55 57 59 62 64 65 66 69 70 71 75 75 74 76 76 82 85 87 89 95 97 98 101 98 92 97 93 95 101 104 107 109 107 105 106 109 110 111 112 114 116 115
57 60 62 63 63 62 59 60 63 65 68 70 74 77 79 79 81 80 73 77 79 83 85 90 95 97 97 99 104 99 100 96 89 93 98 106 112 117 114 109 106 107 104 102 101 100 104 106 106
62 62 66 69 68 67 67 64 66 70 73 76 79 82 83 84 86 83 84 85 89 93 95 95 98 98 102 103 105 110 105 108 104 101 105 114 119 121 115 112 110 105 103 103 97 95 97 98 99
65 64 69 72 73 75 72 66 72 74 76 79 82 85 85 83 82 87 90 91 89 92 94 101 104 102 110 105 107 97 102 104 103 110 116 124 126 124 112 108 103 99 97 98 97 99 99 100 100